Weather History for Harrison, AR

Change the Weather History Date:

Monday, May 6, 2013

  Actual Average Record
Temperature  
Mean Temperature 58 °F 63 °F  
Max Temperature 67 °F 74 °F 92 °F (1940)
Min Temperature 49 °F 53 °F 33 °F (1911)
Degree Days  
Heating Degree Days 7 4  
Month to date heating degree days 98 24  
Since 1 July heating degree days 3934 3945  
Cooling Degree Days 0 2  
Month to date cooling degree days 3 12  
Year to date cooling degree days 35 49  
Growing Degree Days 8 (Base 50)    
Moisture  
Dew Point 50 °F    
Average Humidity 77    
Maximum Humidity 96    
Minimum Humidity 58    
Precipitation  
Precipitation 0.00 in 0.18 in 2.60 in (1907)
Month to date precipitation 1.54 1.03  
Year to date precipitation 14.88 14.34  
Snow  
Snow 0.00 in 0.00 in - ()
Month to date snowfall 0.1 0.0  
Since 1 July snowfall 4.7 11.5  
Snow Depth 0.00 in    
Sea Level Pressure  
Sea Level Pressure 30.02 in    
Wind  
Wind Speed 10 mph (NW)    
Max Wind Speed 14 mph    
Max Gust Speed 21 mph    
Visibility 8 miles    
Events      
T = Trace of Precipitation, MM = Missing Value Source: NWS Daily Summary

Daily Weather History Graph

Daily Weather History Graph

Search for Another Location

Airport:

Trip Planner

Search our weather history database for the weather conditions in past years. The results will help you decide how hot, cold, wet, or windy it might be!

Date:

Astronomy

May. 06, 2013 Rise Set
Actual Time 6:14 AM CDT 8:04 PM CDT
Civil Twilight 5:46 AM CDT 8:32 PM CDT
Nautical Twilight 5:12 AM CDT 9:06 PM CDT
Astronomical Twilight 4:36 AM CDT 9:43 PM CDT
Moon 4:10 AM CDT (5/6) 5:10 PM CDT (5/6)
Length of Visible Light 14h 46m
Length of Day
13h 50m
Waning Crescent, 11% of the Moon is Illuminated
May 6
Waning Crescent
May 9
New
May 17
First Quarter
May 24
Full
May 31
Last Quarter

Hourly Weather History & Observations

Time (CDT) Temp. Dew Point Humidity Pressure Visibility Wind Dir Wind Speed Gust Speed Precip Events Conditions
12:44 AM 51.8 °F 46.4 °F 82% 30.01 in 10.0 mi WNW 9.2 mph 18.4 mph N/A   Overcast
12:53 AM 51.1 °F 46.9 °F 86% 30.00 in 10.0 mi WNW 10.4 mph 17.3 mph N/A   Overcast
1:53 AM 51.1 °F 46.9 °F 86% 29.99 in 10.0 mi WNW 8.1 mph - N/A   Overcast
2:53 AM 51.1 °F 46.9 °F 86% 29.98 in 10.0 mi NW 9.2 mph - N/A   Overcast
3:04 AM 51.8 °F 48.2 °F 88% 29.98 in 10.0 mi NW 6.9 mph - N/A   Overcast
3:53 AM 51.1 °F 48.0 °F 89% 29.97 in 9.0 mi NW 12.7 mph 19.6 mph N/A   Overcast
4:53 AM 50.0 °F 48.0 °F 93% 29.97 in 7.0 mi WNW 10.4 mph - N/A   Overcast
5:53 AM 50.0 °F 48.0 °F 93% 29.99 in 6.0 mi WNW 10.4 mph - N/A   Overcast
6:05 AM 50.0 °F 48.2 °F 94% 30.00 in 5.0 mi WNW 10.4 mph - N/A   Overcast
6:53 AM 50.0 °F 48.0 °F 93% 30.01 in 3.0 mi NW 12.7 mph 18.4 mph N/A   Overcast
7:14 AM 50.0 °F 48.2 °F 94% 30.03 in 2.0 mi NW 11.5 mph - N/A   Overcast
7:23 AM 50.0 °F 48.2 °F 94% 30.03 in 1.8 mi NW 9.2 mph - N/A   Overcast
7:53 AM 50.0 °F 48.9 °F 96% 30.03 in 1.2 mi WNW 8.1 mph - N/A   Overcast
8:29 AM 50.0 °F 48.2 °F 94% 30.03 in 2.0 mi NW 10.4 mph - N/A   Overcast
8:43 AM 50.0 °F 48.2 °F 94% 30.04 in 3.0 mi NW 12.7 mph - 0.01 in   Overcast
8:53 AM 50.0 °F 48.9 °F 96% 30.04 in 3.0 mi NW 12.7 mph 19.6 mph 0.01 in   Overcast
9:50 AM 51.8 °F 50.0 °F 94% 30.06 in 7.0 mi NW 9.2 mph - N/A   Overcast
9:53 AM 52.0 °F 50.0 °F 93% 30.05 in 7.0 mi NW 11.5 mph - N/A   Overcast
10:53 AM 53.1 °F 50.0 °F 89% 30.06 in 9.0 mi NW 9.2 mph - N/A   Overcast
11:30 AM 55.4 °F 50.0 °F 82% 30.06 in 10.0 mi NW 10.4 mph - N/A   Overcast
11:53 AM 57.9 °F 51.1 °F 78% 30.04 in 10.0 mi NW 10.4 mph 17.3 mph N/A   Mostly Cloudy
12:15 PM 60.8 °F 51.8 °F 72% 30.05 in 10.0 mi NW 8.1 mph 18.4 mph N/A   Mostly Cloudy
12:53 PM 61.0 °F 51.1 °F 70% 30.03 in 10.0 mi WNW 9.2 mph - N/A   Overcast
1:40 PM 62.6 °F 51.8 °F 68% 30.03 in 10.0 mi NW 12.7 mph 18.4 mph N/A   Mostly Cloudy
1:53 PM 64.0 °F 52.0 °F 65% 30.02 in 10.0 mi NW 9.2 mph - N/A   Mostly Cloudy
2:15 PM 62.6 °F 51.8 °F 68% 30.03 in 10.0 mi NW 11.5 mph 17.3 mph N/A   Mostly Cloudy
2:29 PM 64.4 °F 51.8 °F 64% 30.03 in 10.0 mi WNW 11.5 mph - N/A   Scattered Clouds
2:53 PM 64.0 °F 51.1 °F 63% 30.01 in 10.0 mi NW 12.7 mph 18.4 mph N/A   Mostly Cloudy
3:24 PM 66.2 °F 51.8 °F 60% 30.02 in 10.0 mi NW 8.1 mph 16.1 mph N/A   Mostly Cloudy
3:53 PM 66.0 °F 52.0 °F 60% 29.99 in 10.0 mi NW 8.1 mph - N/A   Mostly Cloudy
4:04 PM 64.4 °F 51.8 °F 64% 30.00 in 10.0 mi NW 12.7 mph 18.4 mph N/A   Scattered Clouds
4:53 PM 66.0 °F 52.0 °F 60% 29.98 in 10.0 mi WNW 11.5 mph - N/A   Mostly Cloudy
5:53 PM 64.0 °F 52.0 °F 65% 29.99 in 10.0 mi NW 11.5 mph 17.3 mph N/A   Clear
6:53 PM 62.1 °F 51.1 °F 67% 29.99 in 10.0 mi WNW 9.2 mph - N/A   Clear
7:53 PM 59.0 °F 51.1 °F 75% 30.00 in 10.0 mi WNW 6.9 mph - N/A   Clear
8:53 PM 57.0 °F 50.0 °F 77% 30.03 in 10.0 mi WNW 8.1 mph - N/A   Clear
9:53 PM 55.9 °F 50.0 °F 80% 30.05 in 10.0 mi WNW 8.1 mph - N/A   Clear
10:53 PM 55.9 °F 50.0 °F 80% 30.06 in 10.0 mi West 8.1 mph - N/A   Partly Cloudy
11:53 PM 55.0 °F 50.0 °F 83% 30.06 in 10.0 mi West 8.1 mph - N/A   Mostly Cloudy